[[{"header":{"parameterUnit":"m.s-1","parameterCategory":1,"la1":30.2991,"la2":30.254,"lo1":-89.0895,"lo2":-89.0444,"dy":0.0017,"dx":0.0017,"nx":28,"ny":28,"refTime":"2023-08-01T21:00:00:Z","depth":0,"parameterNumber":2,"parameterNumberName":"U-component_of_WINDS"},"data":[0,0,0,0,0,0,0,0,0,0,0,0,0,0,0,0,0,0,0,0,0,0,0,0,0,0,0,0,0,0,0,0,0,0,0,0,0,0,0,0,0,0,0,0,0,0,0,0,0,0,0,0,0,0,0,0,0,0,1.0639,1.0638,0,1.0617,1.0617,1.0616,1.053,1.0528,1.0526,1.0524,1.0504,1.0506,1.0507,0,0,0,0,0,0,0,0,0,0,0,0,0,1.0609,1.061,1.0639,1.0638,1.0638,1.0617,1.0617,1.0616,1.0531,1.0528,1.0526,1.0523,1.0504,1.0505,1.0507,0,0,0,0,0,0,0,0,0,0,0,0,0,1.0608,1.061,1.0639,1.0593,1.0588,1.0617,1.0617,1.0616,1.0531,1.0528,1.0525,1.0522,1.0503,1.0505,1.0507,1.0579,0,0,1.0513,1.0514,0,0,0,0,0,0,0,0,1.0608,1.0609,1.06,1.0596,1.0591,1.0573,1.0599,1.0604,1.0532,1.0553,1.0524,1.0521,1.053,1.0529,1.0532,1.0578,1.0577,1.0513,1.0515,1.0515,1.0516,0,0,0,0,0,0,0,1.0608,1.061,1.063,1.06,1.0594,1.0574,1.0571,1.0599,1.0558,1.0551,1.0545,1.0543,1.0527,1.053,1.0531,1.0577,1.0513,1.0515,1.0516,1.0517,1.0683,1.0686,0,0,0,0,0,0,1.0615,1.061,1.0631,1.0629,1.0592,1.0577,1.0573,1.0582,1.0558,1.0551,1.0546,1.0539,1.0528,1.0529,1.053,1.0613,1.0515,1.0517,1.0518,1.068,1.0683,1.0687,0,0,0,0,0,0,1.0614,1.0617,1.0632,1.0618,1.0618,1.0581,1.0591,1.0583,1.0586,1.0554,1.0546,1.0556,1.0526,1.0527,1.0568,1.0611,1.0518,1.052,1.0676,1.0681,1.0685,1.0781,0,0,0,0,0,0,1.0614,1.0618,1.0644,1.0619,1.0619,1.0669,1.0594,1.0585,1.059,1.0581,1.0562,1.0556,1.0524,1.0565,1.057,1.0612,1.0521,1.0672,1.0678,1.0684,1.0773,1.0788,1.0801,0,0,0,0,0,1.0613,1.0672,1.0645,1.0648,1.0651,1.0672,1.0672,1.0633,1.0593,1.062,1.0599,1.0557,1.0606,1.057,1.0574,1.0618,1.0669,1.0676,1.0683,1.0767,1.0785,1.08,0,0,0,0,0,0,1.0702,1.0667,1.0638,1.069,1.0685,1.0657,1.0689,1.0653,1.0659,1.0651,1.0603,1.0599,1.0647,1.0637,1.0597,1.0688,1.063,1.0639,1.0693,1.0709,1.0723,1.0725,1.0523,0,0,0,0,0,1.0728,1.0747,1.0716,1.0765,1.0763,1.0727,1.0735,1.0705,1.0698,1.0695,1.0677,1.0673,1.0687,1.0697,1.0709,1.0771,1.0767,1.0804,1.0818,1.0829,1.0837,1.0871,1.0888,1.0711,1.0711,1.071,0,0,1.0781,1.0765,1.0779,1.0782,1.0774,1.0796,1.0726,1.0751,1.0767,1.0699,1.0737,1.0724,1.0715,1.0768,1.079,1.076,1.0885,1.0838,1.0848,1.0849,1.088,1.0897,1.0912,1.0716,1.0715,1.0714,0,0,1.089,1.0879,1.0919,1.0913,1.0902,1.0877,1.0887,1.0866,1.0855,1.0891,1.0841,1.086,1.0885,1.0882,1.0884,1.0993,1.0954,1.0998,1.1069,1.1103,1.1117,1.1129,1.1169,1.1184,1.1006,1.1006,1.1006,0,1.0958,1.0987,1.0944,1.0974,1.0977,1.0916,1.0958,1.0954,1.0948,1.0952,1.0919,1.0951,1.0941,1.0992,1.1019,1.1022,1.1033,1.1,1.1118,1.113,1.1141,1.1179,1.1194,1.1012,1.1011,1.101,1.101,0,1.1072,1.1094,1.1128,1.1123,1.1131,1.1166,1.1129,1.1142,1.1113,1.1093,1.1132,1.1118,1.1126,1.1136,1.1107,1.1184,1.1166,1.1127,1.1068,1.1164,1.1199,1.1213,1.1019,1.1018,1.1016,1.1015,0,0,1.1235,1.1207,1.1221,1.1219,1.1203,1.1219,1.1253,1.126,1.1273,1.1271,1.1299,1.1323,1.1286,1.1288,1.1259,1.1288,1.1378,1.1245,1.1244,1.1271,1.1463,1.1494,1.1511,1.1352,1.1354,1.1356,1.1464,0,1.134,1.1394,1.1357,1.1418,1.1439,1.1382,1.1411,1.1406,1.1388,1.1404,1.1384,1.1403,1.1352,1.1354,1.138,1.1361,1.1416,1.1353,1.1378,1.138,1.1383,1.1529,1.1561,1.1663,1.1477,1.148,1.1481,0,1.1468,1.1472,1.1535,1.1517,1.1524,1.1551,1.1556,1.1571,1.1564,1.155,1.1553,1.1517,1.1549,1.1492,1.1537,1.1495,1.1503,1.1496,1.1499,1.15,1.1437,1.1535,1.1695,1.1711,1.1502,1.15,1.1499,0,1.1582,1.1604,1.1644,1.1644,1.1624,1.1644,1.1637,1.1627,1.1634,1.1639,1.1644,1.1652,1.1658,1.1666,1.1633,1.1594,1.1684,1.1623,1.1673,1.1674,1.1695,1.1694,1.1859,1.1699,1.1699,1.1699,1.1699,0,1.1703,1.1744,1.1696,1.1721,1.1766,1.1724,1.177,1.1757,1.1749,1.1771,1.1723,1.1746,1.1701,1.1719,1.1694,1.1737,1.1739,1.1729,1.1722,1.1734,1.1735,1.1739,1.1731,1.1703,1.1702,1.1701,1.1701,0,1.1838,1.1807,1.1848,1.1826,1.1821,1.1856,1.1837,1.186,1.1839,1.1869,1.1873,1.1842,1.1861,1.1829,1.1845,1.1828,1.1887,1.1869,1.189,1.1885,1.1938,1.1934,1.2111,1.2133,1.1959,1.196,1.1962,0,1.1917,1.1948,1.1929,1.194,1.1936,1.1955,1.1962,1.1923,1.1933,1.1928,1.1953,1.1968,1.1978,1.2012,1.1991,1.2003,1.1985,1.2046,1.1986,1.1998,1.1987,1.1986,1.199,1.2059,1.2061,1.2063,1.2064,0,1.2062,1.2045,1.2058,1.2066,1.2076,1.2081,1.2082,1.2094,1.2052,1.2067,1.2086,1.2094,1.211,1.2126,1.2133,1.2126,1.209,1.2083,1.2096,1.2109,1.212,1.2116,1.1924,1.2079,1.2078,1.2077,1.2076,1.2075,1.2172,1.2197,1.2188,1.2204,1.2201,1.2203,1.2225,1.2207,1.2222,1.2232,1.2208,1.2233,1.2227,1.2233,1.223,1.225,1.2223,1.2241,1.2246,1.2251,1.226,1.2116,1.2251,1.2251,1.2251,1.225,1.225,0,1.2315,1.2307,1.2322,1.2325,1.2338,1.2301,1.2301,1.2315,1.2338,1.2335,1.2346,1.2369,1.2385,1.2366,1.2379,1.2399,1.2382,1.2404,1.2402,1.2402,1.2283,1.2271,1.2417,1.2417,1.2417,1.2417,1.2417,1.2417,1.2391,1.2432,1.2415,1.2455,1.2446,1.247,1.2473,1.2476,1.2474,1.2501,1.2514,1.2502,1.2493,1.2505,1.2518,1.2512,1.252,1.2548,1.2536,1.2426,1.241,1.2394,1.2383,1.255,1.255,1.2653,1.2654,1.2655]},{"header":{"parameterUnit":"m.s-1","parameterCategory":1,"la1":30.2991,"la2":30.254,"lo1":-89.0895,"lo2":-89.0444,"dy":0.0017,"dx":0.0017,"nx":28,"ny":28,"refTime":"2023-08-01T21:00:00:Z","depth":0,"parameterNumber":3,"parameterNumberName":"V-component_of_WINDS"},"data":[0,0,0,0,0,0,0,0,0,0,0,0,0,0,0,0,0,0,0,0,0,0,0,0,0,0,0,0,0,0,0,0,0,0,0,0,0,0,0,0,0,0,0,0,0,0,0,0,0,0,0,0,0,0,0,0,0,0,-1.3389,-1.339,0,-1.3427,-1.3427,-1.3428,-1.3413,-1.3413,-1.3412,-1.3411,-1.345,-1.3451,-1.3453,0,0,0,0,0,0,0,0,0,0,0,0,0,-1.3307,-1.3309,-1.3389,-1.339,-1.339,-1.3427,-1.3427,-1.3428,-1.3414,-1.3413,-1.3411,-1.341,-1.3449,-1.3451,-1.3453,0,0,0,0,0,0,0,0,0,0,0,0,0,-1.3344,-1.3309,-1.3389,-1.3387,-1.3388,-1.3427,-1.3427,-1.3428,-1.3414,-1.3413,-1.3411,-1.341,-1.3448,-1.3451,-1.3454,-1.3497,0,0,-1.3462,-1.3463,0,0,0,0,0,0,0,0,-1.3341,-1.3347,-1.3387,-1.3388,-1.3388,-1.3414,-1.3413,-1.3451,-1.3414,-1.3404,-1.3411,-1.3409,-1.3439,-1.3442,-1.3452,-1.3499,-1.35,-1.3462,-1.3464,-1.3465,-1.3466,0,0,0,0,0,0,0,-1.3339,-1.3345,-1.3404,-1.3388,-1.3388,-1.3386,-1.3389,-1.342,-1.3428,-1.3405,-1.3404,-1.3408,-1.3439,-1.345,-1.3453,-1.3501,-1.3462,-1.3465,-1.3466,-1.3468,-1.3588,-1.3589,0,0,0,0,0,0,-1.3336,-1.3343,-1.3403,-1.3405,-1.3361,-1.3388,-1.3392,-1.3407,-1.3428,-1.343,-1.3409,-1.3408,-1.3446,-1.345,-1.3454,-1.3508,-1.3465,-1.3468,-1.3469,-1.3586,-1.3588,-1.359,0,0,0,0,0,0,-1.3334,-1.3342,-1.3401,-1.3374,-1.3381,-1.3391,-1.3408,-1.3409,-1.3419,-1.3431,-1.3433,-1.3419,-1.3445,-1.3451,-1.3487,-1.3509,-1.3469,-1.3472,-1.3584,-1.3587,-1.3589,-1.3615,0,0,0,0,0,0,-1.3332,-1.3341,-1.3357,-1.3374,-1.3383,-1.3433,-1.3409,-1.341,-1.3424,-1.3422,-1.3441,-1.3443,-1.3444,-1.3483,-1.349,-1.3513,-1.3474,-1.3583,-1.3586,-1.3588,-1.3613,-1.3618,-1.3623,0,0,0,0,0,-1.3329,-1.3362,-1.3358,-1.3365,-1.3403,-1.3434,-1.3439,-1.344,-1.3426,-1.3443,-1.3451,-1.3442,-1.3506,-1.3487,-1.3494,-1.3518,-1.3581,-1.3585,-1.3588,-1.361,-1.3617,-1.3623,0,0,0,0,0,0,-1.3346,-1.3364,-1.336,-1.3399,-1.3415,-1.3432,-1.3452,-1.3447,-1.3468,-1.3465,-1.3466,-1.347,-1.3508,-1.3517,-1.3495,-1.3563,-1.3541,-1.3547,-1.3556,-1.3562,-1.3568,-1.3565,-1.3476,0,0,0,0,0,-1.3355,-1.3378,-1.3393,-1.3426,-1.3435,-1.3443,-1.3456,-1.3456,-1.3473,-1.348,-1.349,-1.3507,-1.3532,-1.3547,-1.357,-1.3614,-1.3619,-1.3634,-1.3639,-1.3644,-1.3648,-1.3675,-1.3683,-1.3601,-1.3601,-1.3601,0,0,-1.3372,-1.3385,-1.34,-1.343,-1.3443,-1.3469,-1.3448,-1.3475,-1.3495,-1.3484,-1.3519,-1.3528,-1.3547,-1.3589,-1.3607,-1.3597,-1.3672,-1.3648,-1.3651,-1.3654,-1.3679,-1.3687,-1.3694,-1.3604,-1.3603,-1.3603,0,0,-1.3417,-1.3429,-1.3459,-1.3473,-1.3492,-1.3498,-1.3505,-1.3523,-1.3529,-1.3565,-1.3558,-1.3581,-1.3622,-1.3637,-1.365,-1.3704,-1.3697,-1.3711,-1.3739,-1.3765,-1.3772,-1.3777,-1.3799,-1.3806,-1.3716,-1.3716,-1.3716,0,-1.3436,-1.3474,-1.3475,-1.3504,-1.3519,-1.3511,-1.3542,-1.3556,-1.3582,-1.3592,-1.3581,-1.3634,-1.3646,-1.3692,-1.3705,-1.3715,-1.3725,-1.3709,-1.377,-1.3776,-1.3782,-1.3802,-1.381,-1.3717,-1.3717,-1.3717,-1.3717,0,-1.3498,-1.3525,-1.3547,-1.3574,-1.3591,-1.3621,-1.3627,-1.3645,-1.3644,-1.3651,-1.3689,-1.3704,-1.3731,-1.3741,-1.374,-1.3788,-1.3781,-1.377,-1.3749,-1.3791,-1.381,-1.3818,-1.372,-1.3719,-1.3719,-1.3718,0,0,-1.3554,-1.3582,-1.3591,-1.3604,-1.3626,-1.3647,-1.3678,-1.3705,-1.3721,-1.374,-1.3767,-1.3803,-1.3794,-1.3808,-1.3809,-1.3831,-1.3877,-1.3818,-1.3818,-1.383,-1.3933,-1.3942,-1.3951,-1.3872,-1.3874,-1.3875,-1.3932,0,-1.3602,-1.3656,-1.3659,-1.3708,-1.3734,-1.3728,-1.3756,-1.3773,-1.3781,-1.3805,-1.3813,-1.384,-1.3825,-1.3834,-1.3856,-1.3866,-1.3897,-1.3862,-1.3899,-1.39,-1.3895,-1.3961,-1.397,-1.4023,-1.3939,-1.3941,-1.3942,0,-1.3665,-1.3687,-1.374,-1.3761,-1.3772,-1.3796,-1.3823,-1.3845,-1.3866,-1.387,-1.3888,-1.3886,-1.392,-1.3897,-1.3944,-1.392,-1.3935,-1.3943,-1.3945,-1.3949,-1.3924,-1.3968,-1.404,-1.4049,-1.3953,-1.3952,-1.3951,0,-1.3703,-1.3746,-1.3783,-1.3795,-1.382,-1.3838,-1.3849,-1.3869,-1.3885,-1.3909,-1.392,-1.3947,-1.3962,-1.3983,-1.3989,-1.3972,-1.4037,-1.4014,-1.4042,-1.4042,-1.4057,-1.4056,-1.4133,-1.4064,-1.4064,-1.4064,-1.4064,0,-1.3757,-1.379,-1.3801,-1.3824,-1.3861,-1.3865,-1.3902,-1.3913,-1.3931,-1.3957,-1.3953,-1.3978,-1.3984,-1.401,-1.4015,-1.4054,-1.4061,-1.4066,-1.4067,-1.4067,-1.4067,-1.4078,-1.4075,-1.4066,-1.4066,-1.4065,-1.4065,0,-1.3805,-1.3814,-1.3855,-1.3877,-1.3883,-1.391,-1.3929,-1.3952,-1.396,-1.3993,-1.4001,-1.4015,-1.4046,-1.4054,-1.4091,-1.4094,-1.4141,-1.4138,-1.4135,-1.4135,-1.4164,-1.4162,-1.4252,-1.4265,-1.4186,-1.4187,-1.4188,0,-1.384,-1.3865,-1.389,-1.3908,-1.392,-1.3948,-1.3966,-1.3972,-1.3991,-1.4018,-1.4038,-1.4069,-1.4094,-1.4144,-1.4158,-1.4187,-1.4185,-1.4215,-1.4189,-1.419,-1.4188,-1.4187,-1.4191,-1.422,-1.4221,-1.4222,-1.4222,0,-1.3901,-1.3905,-1.393,-1.3959,-1.398,-1.4003,-1.4024,-1.4039,-1.4048,-1.407,-1.4102,-1.4121,-1.416,-1.4192,-1.4222,-1.4234,-1.4231,-1.423,-1.4239,-1.4239,-1.4237,-1.4241,-1.415,-1.4228,-1.4227,-1.4227,-1.4227,-1.4226,-1.3944,-1.3968,-1.399,-1.402,-1.4037,-1.4058,-1.4081,-1.4094,-1.412,-1.4153,-1.4155,-1.419,-1.4213,-1.4253,-1.4268,-1.4296,-1.4288,-1.4299,-1.4303,-1.4306,-1.4309,-1.4232,-1.4302,-1.4301,-1.4301,-1.4301,-1.4301,0,-1.4007,-1.4022,-1.4049,-1.408,-1.4104,-1.4099,-1.4123,-1.4144,-1.4175,-1.4197,-1.4222,-1.4261,-1.4292,-1.4309,-1.434,-1.436,-1.436,-1.4368,-1.4368,-1.4371,-1.4314,-1.4305,-1.4369,-1.4369,-1.4369,-1.4369,-1.4369,-1.4369,-1.4042,-1.4082,-1.4089,-1.4139,-1.4153,-1.4188,-1.4203,-1.4223,-1.4241,-1.4284,-1.431,-1.4321,-1.4342,-1.4375,-1.4404,-1.4408,-1.4421,-1.4431,-1.4435,-1.4382,-1.4375,-1.4368,-1.4359,-1.4434,-1.4434,-1.449,-1.449,-1.4491]}]]